Group_ship,Cruise,JD_GMT,Date_DDMMYYYY,TIME_HH:MM:SS,Lat_dec_degree,Long_dec_degree,xCO2eq_ppm,xCO2a_ppm,Pres_Equi_hPa,Pres_sealevel_hPa,EqTemp_C,SST(TSG)_C,Sal(TSG)_Permil,Water_flow_l/min,Gasflow_IR_ml/min,Temp_IR_C,Pres_IR_hPa,Ship_heading_true_degree,Ship_speed_knot,Wind_dir_rel_degree,Wind_speed_rel_m/s,fCO2W@SST_uatm,Qcflag_water,fCO2a_uatm,Qcflag_air,dfCO2_uatm,Fluoro_ug/l,Wind_speed_true_m/s,Wind_dir_true_degree,Air_temp_C,Oxygen
AOML_Explorer,Ex0528E,191.972,10072005,23:19:07,25.969,-79.618,396.17,-9,1014.68,1011.91,28.52,28.9,36.08,1.64,86.6,31.64,1014.68,58.4,24.4,9,18.01,385.88,2,-9,9,-9,0.1,6.86,104.45,-9,-9
AOML_Explorer,Ex0528E,191.973,10072005,23:21:40,25.978,-79.602,396.31,-9,1014.62,1011.89,28.52,28.9,36.08,1.64,85.68,31.65,1014.62,58.7,24.3,10,19.04,385.85,2,-9,9,-9,0.1,7.91,102.19,-9,-9
AOML_Explorer,Ex0528E,191.975,10072005,23:24:13,25.987,-79.586,396.33,-9,1014.6,1011.89,28.53,28.9,36.08,1.64,86.09,31.65,1014.6,59,24.2,6,17.5,385.78,2,-9,9,-9,0.1,5.95,97.63,-9,-9
AOML_Explorer,Ex0528E,191.977,10072005,23:26:46,25.996,-79.57,396.23,-9,1014.64,1011.89,28.53,28.91,36.08,1.67,85.66,31.66,1014.64,59.2,24.1,8,18.01,385.79,2,-9,9,-9,0.09,6.71,100.12,-9,-9
AOML_Explorer,Ex0528E,191.979,10072005,23:29:19,26.005,-79.553,396.03,-9,1014.71,1011.91,28.54,28.91,36.08,1.65,86.18,31.66,1014.71,59.3,24.1,7,18.53,385.53,2,-9,9,-9,0.1,7.01,95.53,-9,-9
AOML_Explorer,Ex0528E,191.98,10072005,23:31:52,26.013,-79.537,395.85,-9,1014.7,1011.91,28.55,28.89,36.07,1.69,85.92,31.66,1014.7,58.1,22.9,10,18.01,385.04,2,-9,9,-9,0.09,7.32,98.12,-9,-9
AOML_Explorer,Ex0528E,191.982,10072005,23:34:25,26.022,-79.522,395.68,-9,1014.7,1011.89,28.54,28.83,36.09,1.68,85.75,31.67,1014.7,57.4,22.3,8,18.53,384.1,2,-9,9,-9,0.1,7.88,91.62,-9,-9
AOML_Explorer,Ex0528E,191.984,10072005,23:36:58,26.03,-79.508,395.38,-9,1014.76,1012.15,28.51,28.71,36.12,1.66,85.62,31.67,1014.76,55.5,21.7,16,16.47,382.52,2,-9,9,-9,0.12,7.55,113.46,-9,-9
AOML_Explorer,Ex0528E,191.986,10072005,23:39:31,26.039,-79.494,395.12,-9,1014.79,1012.17,28.41,28.69,36.15,1.68,85.87,31.68,1014.79,56.7,21.6,12,16.99,383.57,2,-9,9,-9,0.11,7.42,104.85,-9,-9
AOML_Explorer,Ex0528E,191.988,10072005,23:42:04,26.047,-79.48,394.23,-9,1014.77,1012.17,28.36,28.7,36.14,1.71,85.93,31.68,1014.77,56.4,21.6,12,18.53,383.57,2,-9,9,-9,0.11,8.79,99.48,-9,-9
AOML_Explorer,Ex0528E,191.989,10072005,23:44:37,26.056,-79.466,393.09,-9,1014.77,1011.9,28.36,28.7,36.14,1.71,85.32,31.68,1014.77,56.6,21.2,14,19.04,382.53,2,-9,9,-9,0.11,9.64,100.79,-9,-9
AOML_Explorer,Ex0528E,191.991,10072005,23:47:10,26.064,-79.451,392.67,-9,1014.82,1011.93,28.36,28.71,36.14,1.71,84.43,31.68,1014.82,57.1,23,11,18.01,382.18,2,-9,9,-9,0.11,7.53,101.24,-9,-9
AOML_Explorer,Ex0528E,191.993,10072005,23:49:43,26.073,-79.436,392.36,-9,1014.77,1012.14,28.37,28.69,36.14,1.71,85.37,31.68,1014.77,57.8,23.7,9,20.07,381.54,2,-9,9,-9,0.11,8.76,91.7,-9,-9
AOML_Explorer,Ex0528E,191.995,10072005,23:52:16,26.082,-79.42,392.24,-9,1014.93,1012.16,28.37,28.7,36.14,1.72,85.41,31.69,1014.93,58.1,24.1,13,19.56,381.5,2,-9,9,-9,0.11,8.63,102.06,-9,-9
AOML_Explorer,Ex0528E,191.996,10072005,23:54:49,26.091,-79.404,392.25,-9,1014.85,1012.13,28.36,28.72,36.14,1.7,85.55,31.69,1014.85,58.6,24.1,10,19.04,381.93,2,-9,9,-9,0.12,7.68,96.83,-9,-9
AOML_Explorer,Ex0528E,191.998,10072005,23:57:22,26.1,-79.388,392.12,-9,1014.86,1011.89,28.37,28.72,36.14,1.68,83.72,31.69,1014.86,58.5,24.1,14,20.59,381.71,2,-9,9,-9,0.13,9.66,100.96,-9,-9
AOML_Explorer,Ex0528E,192,10072005,23:59:55,26.109,-79.371,392.28,-9,1014.8,1011.89,28.38,28.8,36.13,1.7,85.9,31.69,1014.8,58.3,24.1,14,20.59,382.69,2,-9,9,-9,0.11,9.68,101.13,-9,-9
AOML_Explorer,Ex0528E,192.01,11072005,0:14:01,26.158,-79.282,392.28,-9,1015,1012.44,28.62,29.01,36.11,1.71,86.77,31.76,1015,59.7,24,14,20.07,382.04,2,-9,9,-9,0.12,9.05,100.82,-9,-9
AOML_Explorer,Ex0528E,192.012,11072005,0:16:34,26.166,-79.266,393.4,-9,1015.09,1012.16,28.63,29.08,36.09,1.7,86.14,31.77,1015.09,59.3,24,12,19.56,383.97,2,-9,9,-9,0.11,8.34,98.13,-9,-9
AOML_Explorer,Ex0528E,192.013,11072005,0:19:07,26.175,-79.249,394.1,-9,1015.07,1012.13,28.66,29.11,36.07,1.72,86.05,31.78,1015.07,60,24,13,21.1,384.8,2,-9,9,-9,0.1,9.87,96.81,-9,-9
AOML_Explorer,Ex0528E,192.015,11072005,0:21:40,26.183,-79.233,394.66,-9,1015.23,1012.39,28.72,29.11,36.06,1.7,86.36,31.78,1015.23,60.4,23.9,15,20.07,384.39,2,-9,9,-9,0.11,9.17,102.52,-9,-9
AOML_Explorer,Ex0528E,192.017,11072005,0:24:13,26.192,-79.217,395.09,-9,1015.27,1012.14,28.73,29.09,36.06,1.71,86.05,31.79,1015.27,61.5,24,11,18.53,384.46,2,-9,9,-9,0.11,7.17,99.45,-9,-9
AOML_Explorer,Ex0528E,192.019,11072005,0:26:46,26.199,-79.2,395.14,-9,1015.34,1012.42,28.73,29.08,36.06,1.71,85.48,31.79,1015.34,66.8,23.9,12,20.59,384.39,2,-9,9,-9,0.11,9.26,101.74,-9,-9
AOML_Explorer,Ex0528E,192.02,11072005,0:29:19,26.205,-79.182,395.22,-9,1015.63,1012.43,28.72,29.09,36.06,1.71,86.3,31.8,1015.63,71.8,23.6,7,20.59,384.93,2,-9,9,-9,0.12,8.87,95.2,-9,-9
AOML_Explorer,Ex0528E,192.022,11072005,0:31:52,26.209,-79.164,395.26,-9,1015.51,1012.42,28.72,29.09,36.06,1.72,84.69,31.8,1015.51,77,23.4,9,20.59,384.98,2,-9,9,-9,0.11,9.12,104.03,-9,-9
AOML_Explorer,Ex0528E,192.024,11072005,0:34:25,26.212,-79.146,395.31,-9,1015.61,1012.42,28.71,29.1,36.06,1.72,85.75,31.8,1015.61,78.6,23.4,4,19.04,385.16,2,-9,9,-9,0.11,7.17,94.46,-9,-9
AOML_Explorer,Ex0528E,192.026,11072005,0:36:58,26.216,-79.128,395.35,-9,1015.56,1012.4,28.72,29.09,36.07,1.72,85.04,31.8,1015.56,78.9,23.6,5,20.07,385.09,2,-9,9,-9,0.1,8.15,96.36,-9,-9
AOML_Explorer,Ex0528E,192.027,11072005,0:39:31,26.219,-79.11,395.38,-9,1015.57,1012.41,28.72,29.09,36.07,1.7,85.29,31.8,1015.57,79.9,23.5,4,20.07,384.98,2,-9,9,-9,0.12,8.1,92.73,-9,-9
AOML_Explorer,Ex0528E,192.029,11072005,0:42:04,26.221,-79.092,395.45,-9,1015.63,1012.41,28.72,29.1,36.06,1.72,85.01,31.8,1015.63,84.8,23.5,2,21.1,385.24,2,-9,9,-9,0.11,9.05,92.16,-9,-9
AOML_Explorer,Ex0528E,192.031,11072005,0:44:37,26.222,-79.073,395.41,-9,1015.55,1012.42,28.72,29.1,36.07,1.71,85.59,31.8,1015.55,89.7,23.4,2,20.07,385.19,2,-9,9,-9,0.11,8.06,96.53,-9,-9
AOML_Explorer,Ex0528E,192.033,11072005,0:47:10,26.222,-79.055,395.39,-9,1015.6,1012.68,28.73,29.09,36.07,1.71,85.41,31.8,1015.6,90,23.5,2,19.56,384.83,2,-9,9,-9,0.1,7.49,95.6,-9,-9
AOML_Explorer,Ex0528E,192.035,11072005,0:49:43,26.222,-79.036,395.55,-9,1015.57,1012.69,28.73,29.09,36.07,1.7,84.42,31.8,1015.57,90.5,23.5,0,19.56,385.11,2,-9,9,-9,0.11,7.46,90.01,-9,-9
AOML_Explorer,Ex0528E,192.036,11072005,0:52:16,26.221,-79.018,395.5,-9,1015.68,1012.67,28.72,29.1,36.08,1.72,85.92,31.8,1015.68,90.8,23.5,4,20.07,385.3,2,-9,9,-9,0.11,8.04,99.7,-9,-9
AOML_Explorer,Ex0528E,192.038,11072005,0:54:49,26.221,-78.999,395.38,-9,1015.83,1012.68,28.72,29.15,36.08,1.73,85.38,31.79,1015.83,91.4,23.6,3,20.59,385.93,2,-9,9,-9,0.11,8.46,95.93,-9,-9
AOML_Explorer,Ex0528E,192.04,11072005,0:57:22,26.221,-78.981,395.15,-9,1015.72,1012.67,28.73,29.14,36.1,1.69,85.37,31.79,1015.72,91.8,23.6,5,20.59,385.38,2,-9,9,-9,0.11,8.5,100.43,-9,-9
AOML_Explorer,Ex0528E,192.042,11072005,0:59:55,26.22,-78.962,394.9,-9,1015.82,1012.68,28.77,29.11,36.09,1.73,85.55,31.79,1015.82,92.2,23.7,3,21.62,384.22,2,-9,9,-9,0.11,9.43,94.95,-9,-9
AOML_Explorer,Ex0528E,192.055,11072005,1:19:07,26.197,-78.825,395.86,-9,1015.98,1012.97,28.91,29.32,36.08,1.68,86.5,31.76,1015.98,102.7,23.7,2,21.62,386.03,2,-9,9,-9,0.09,9.43,98.89,-9,-9
AOML_Explorer,Ex0528E,192.057,11072005,1:21:40,26.193,-78.807,397.5,-9,1015.94,1012.67,28.94,29.26,36.09,1.71,86.7,31.73,1015.94,106.5,24,355,22.65,386.43,2,-9,9,-9,0.09,10.57,88.41,-9,-9
AOML_Explorer,Ex0528E,192.058,11072005,1:24:13,26.188,-78.789,398.59,-9,1015.98,1012.65,28.91,29.22,36.1,1.7,86.37,31.72,1015.98,106.8,24,356,21.1,387.45,2,-9,9,-9,0.1,8.98,89.67,-9,-9
AOML_Explorer,Ex0528E,192.06,11072005,1:26:46,26.183,-78.771,399.16,-9,1016.01,1012.68,28.87,29.09,36.13,1.69,86.42,31.72,1016.01,108.1,24,356,22.13,386.7,2,-9,9,-9,0.09,9.98,92.73,-9,-9
AOML_Explorer,Ex0528E,192.062,11072005,1:29:19,26.178,-78.753,399.37,-9,1016.06,1012.69,28.81,28.88,36.19,1.71,86.49,31.72,1016.06,107.3,23.9,354,21.62,385.08,2,-9,9,-9,0.08,9.63,87.89,-9,-9
AOML_Explorer,Ex0528E,192.064,11072005,1:31:52,26.173,-78.735,399.53,-9,1015.99,1012.94,28.68,28.83,36.18,1.69,86.21,31.72,1015.99,107.4,23.6,359,21.62,386.18,2,-9,9,-9,0.09,9.52,99.95,-9,-9
AOML_Explorer,Ex0528E,192.066,11072005,1:34:25,26.168,-78.718,399.85,-9,1016.07,1012.95,28.53,28.82,36.18,1.71,85.69,31.73,1016.07,107.5,23.4,357,21.1,388.71,2,-9,9,-9,0.08,9.16,96.45,-9,-9
AOML_Explorer,Ex0528E,192.067,11072005,1:36:58,26.163,-78.7,400.13,-9,1016.21,1012.95,28.5,28.83,36.18,1.71,86.03,31.74,1016.21,107.7,23.4,354,21.1,389.64,2,-9,9,-9,0.09,9.3,90.49,-9,-9
AOML_Explorer,Ex0528E,192.069,11072005,1:39:31,26.158,-78.683,399.96,-9,1016.32,1012.97,28.51,28.84,36.18,1.71,85.59,31.75,1016.32,107.7,23.2,358,20.59,389.47,2,-9,9,-9,0.09,8.69,99.98,-9,-9
AOML_Explorer,Ex0528E,192.071,11072005,1:42:04,26.153,-78.665,400.15,-9,1016.34,1013.22,28.5,28.84,36.18,1.7,85.72,31.76,1016.34,107.6,23.1,354,21.62,389.78,2,-9,9,-9,0.08,9.92,92.25,-9,-9
AOML_Explorer,Ex0528E,192.073,11072005,1:44:37,26.149,-78.648,400.35,-9,1016.3,1012.97,28.51,28.88,36.16,1.69,85.68,31.77,1016.3,108.2,22.9,357,21.62,390.28,2,-9,9,-9,0.08,9.89,99.61,-9,-9
AOML_Explorer,Ex0528E,192.078,11072005,1:52:16,26.134,-78.598,399.72,-9,1016.35,1013.23,28.67,29.06,36.1,1.68,85.62,31.79,1016.35,107,22.3,355,21.1,389.84,2,-9,9,-9,0.09,9.72,95.94,-9,-9
AOML_Explorer,Ex0528E,192.08,11072005,1:54:49,26.13,-78.581,398.96,-9,1016.48,1012.99,28.68,29.11,36.09,1.7,85.67,31.8,1016.48,107.3,22.2,357,22.13,389.85,2,-9,9,-9,0.09,10.73,101.46,-9,-9
AOML_Explorer,Ex0528E,192.082,11072005,1:57:22,26.125,-78.564,398.3,-9,1016.35,1012.98,28.71,29.12,36.1,1.69,85.3,31.81,1016.35,107.6,22.1,356,21.62,388.7,2,-9,9,-9,0.09,10.35,99.53,-9,-9
AOML_Explorer,Ex0528E,192.083,11072005,1:59:55,26.12,-78.548,397.82,-9,1016.38,1012.98,28.75,29.16,36.09,1.7,85.64,31.82,1016.38,107.2,21.9,356,21.62,388.12,2,-9,9,-9,0.09,10.4,98.6,-9,-9
AOML_Explorer,Ex0528E,192.095,11072005,2:16:34,26.09,-78.44,395.2,-9,1016.67,1013.21,28.77,29.13,36.12,1.68,86.66,31.92,1016.67,107.3,22.4,0,21.62,385.12,2,-9,9,-9,0.09,10.04,107.06,-9,-9
AOML_Explorer,Ex0528E,192.097,11072005,2:19:07,26.085,-78.423,395.44,-9,1016.59,1013.51,28.77,29.16,36.12,1.7,85.67,31.92,1016.59,107.4,22.6,2,21.62,385.8,2,-9,9,-9,0.1,10,111.34,-9,-9
AOML_Explorer,Ex0528E,192.098,11072005,2:21:40,26.081,-78.406,395.79,-9,1016.67,1013.5,28.78,29.18,36.13,1.68,86.82,31.93,1016.67,107.5,22.6,357,20.59,386.12,2,-9,9,-9,0.1,9.01,99.07,-9,-9
AOML_Explorer,Ex0528E,192.1,11072005,2:24:13,26.076,-78.389,396.31,-9,1016.79,1013.49,28.81,29.11,36.11,1.68,85.86,31.93,1016.79,107.6,22.7,351,22.65,385.43,2,-9,9,-9,0.08,11.3,87.95,-9,-9
AOML_Explorer,Ex0528E,192.102,11072005,2:26:46,26.071,-78.372,396.83,-9,1016.76,1013.51,28.78,29.06,36.13,1.7,86.13,31.94,1016.76,106.3,22.7,357,22.13,385.65,2,-9,9,-9,0.08,10.5,98.44,-9,-9
AOML_Explorer,Ex0528E,192.104,11072005,2:29:19,26.066,-78.355,397.07,-9,1016.84,1013.51,28.73,29.11,36.1,1.71,85.73,31.94,1016.84,108.6,22.7,352,22.65,387.27,2,-9,9,-9,0.08,11.18,92.83,-9,-9
AOML_Explorer,Ex0528E,192.105,11072005,2:31:52,26.061,-78.338,397.25,-9,1016.85,1013.22,28.71,29.19,36.08,1.68,85.85,31.94,1016.85,108.6,22.7,348,22.13,388.75,2,-9,9,-9,0.08,10.95,84.45,-9,-9
AOML_Explorer,Ex0528E,192.107,11072005,2:34:25,26.056,-78.321,397.1,-9,1016.79,1013.5,28.76,29.24,36.08,1.67,85.54,31.94,1016.79,111.9,22.7,348,22.65,388.6,2,-9,9,-9,0.09,11.49,87.51,-9,-9
AOML_Explorer,Ex0528E,192.109,11072005,2:36:58,26.05,-78.305,396.8,-9,1016.93,1013.5,28.84,29.28,36.06,1.7,85.91,31.94,1016.93,112.1,22.7,345,21.62,387.82,2,-9,9,-9,0.08,10.77,80.77,-9,-9
AOML_Explorer,Ex0528E,192.111,11072005,2:39:31,26.044,-78.288,396.81,-9,1016.96,1013.54,28.84,29.34,36.08,1.71,86.12,31.94,1016.96,112.2,22.7,345,21.62,388.64,2,-9,9,-9,0.08,10.75,81.1,-9,-9
AOML_Explorer,Ex0528E,192.113,11072005,2:42:04,26.038,-78.272,396.82,-9,1017.03,1013.52,28.93,29.4,36.07,1.72,85.8,31.94,1017.03,112.1,22.6,345,22.13,388.16,2,-9,9,-9,0.08,11.3,81.82,-9,-9
AOML_Explorer,Ex0528E,192.114,11072005,2:44:37,26.032,-78.256,397.14,-9,1017.1,1013.51,28.96,29.42,36.08,1.7,85.58,31.94,1017.1,112.1,22.6,345,22.65,388.4,2,-9,9,-9,0.08,11.78,82.65,-9,-9
AOML_Explorer,Ex0528E,192.116,11072005,2:47:10,26.026,-78.239,397.67,-9,1017.04,1013.53,29.01,29.42,36.08,1.7,85.81,31.94,1017.04,112,22.5,347,21.1,388.06,2,-9,9,-9,0.1,10.13,84.74,-9,-9
AOML_Explorer,Ex0528E,192.118,11072005,2:49:43,26.02,-78.223,398.14,-9,1017.16,1013.79,29.02,29.42,36.08,1.69,85.8,31.94,1017.16,112.1,22.4,345,21.1,388.46,2,-9,9,-9,0.09,10.39,80.65,-9,-9
AOML_Explorer,Ex0528E,192.12,11072005,2:52:16,26.014,-78.207,398.35,-9,1017.12,1014.03,29.03,29.35,36.08,1.72,85.63,31.94,1017.12,112.2,22.4,347,21.1,387.58,2,-9,9,-9,0.09,10.2,84.46,-9,-9
AOML_Explorer,Ex0528E,192.121,11072005,2:54:49,26.008,-78.19,398.6,-9,1017.15,1014.05,29.01,29.2,36.08,1.72,84.59,31.93,1017.15,112,22.6,352,20.59,386.17,2,-9,9,-9,0.08,9.19,94.4,-9,-9
AOML_Explorer,Ex0528E,192.123,11072005,2:57:22,26.002,-78.174,398.55,-9,1017.14,1014.05,28.91,29.11,36.09,1.71,85.72,31.93,1017.14,111.9,22.6,346,20.07,386.22,2,-9,9,-9,0.08,9.19,80.87,-9,-9
AOML_Explorer,Ex0528E,192.125,11072005,2:59:55,25.996,-78.157,398.33,-9,1017.12,1013.75,28.8,29.02,36.1,1.71,85.07,31.93,1017.12,111.6,22.7,352,22.13,386.47,2,-9,9,-9,0.09,10.65,96.06,-9,-9
AOML_Explorer,Ex0528E,192.14,11072005,3:21:40,25.958,-78.013,393.57,-9,1017.11,1013.52,28.31,28.7,36.13,1.72,86.41,31.98,1017.11,104.3,22.5,347,20.59,384.49,2,-9,9,-9,0.09,9.58,77.43,-9,-9
AOML_Explorer,Ex0528E,192.142,11072005,3:24:13,25.954,-77.996,393.72,-9,1017.02,1013.74,28.33,28.73,36.11,1.71,86.24,31.98,1017.02,104.4,22.6,350,21.1,384.78,2,-9,9,-9,0.08,9.82,83.73,-9,-9
AOML_Explorer,Ex0528E,192.144,11072005,3:26:46,25.95,-77.979,393.84,-9,1017.07,1013.52,28.38,28.75,36.11,1.75,86.01,31.98,1017.07,104.7,22.5,346,21.1,384.52,2,-9,9,-9,0.08,10.2,75.92,-9,-9
AOML_Explorer,Ex0528E,192.145,11072005,3:29:19,25.946,-77.962,393.9,-9,1016.93,1013.51,28.41,28.8,36.09,1.71,86.05,31.98,1016.93,104.7,22.6,346,20.07,384.58,2,-9,9,-9,0.08,9.2,73.44,-9,-9
AOML_Explorer,Ex0528E,192.147,11072005,3:31:52,25.941,-77.945,394.09,-9,1016.97,1013.75,28.44,28.89,36.06,1.72,85.94,31.97,1016.97,104.8,22.6,346,21.1,385.7,2,-9,9,-9,0.08,10.2,75.08,-9,-9
AOML_Explorer,Ex0528E,192.149,11072005,3:34:25,25.937,-77.927,394.06,-9,1017.04,1013.51,28.49,28.94,36.07,1.71,85.27,31.97,1017.04,105.3,22.7,350,22.13,385.55,2,-9,9,-9,0.08,10.84,83.83,-9,-9
AOML_Explorer,Ex0528E,192.151,11072005,3:36:58,25.933,-77.91,394.25,-9,1016.9,1013.78,28.55,28.98,36.07,1.72,85.88,31.96,1016.9,104.9,22.8,353,21.62,385.36,2,-9,9,-9,0.08,10.08,89.4,-9,-9
AOML_Explorer,Ex0528E,192.152,11072005,3:39:31,25.929,-77.893,394.58,-9,1016.94,1013.75,28.6,29,36.09,1.72,85.84,31.96,1016.94,105,22.8,355,21.1,385.3,2,-9,9,-9,0.08,9.47,93.89,-9,-9
AOML_Explorer,Ex0528E,192.154,11072005,3:42:04,25.924,-77.876,395,-9,1016.95,1013.52,28.64,29.02,36.09,1.72,85.77,31.95,1016.95,105.4,23,354,21.1,385.4,2,-9,9,-9,0.08,9.42,91.29,-9,-9
AOML_Explorer,Ex0528E,192.16,11072005,3:49:43,25.912,-77.824,397.21,-9,1016.93,1013.79,28.38,28.88,36.15,1.72,86.47,31.93,1016.93,105.4,22.7,354,20.59,389.53,2,-9,9,-9,0.09,9.13,90.36,-9,-9
AOML_Explorer,Ex0528E,192.161,11072005,3:52:16,25.907,-77.807,396.69,-9,1016.85,1013.78,28.45,28.95,36.15,1.73,85.74,31.93,1016.85,104.6,22.6,357,21.1,388.76,2,-9,9,-9,0.09,9.5,98.22,-9,-9
AOML_Explorer,Ex0528E,192.163,11072005,3:54:49,25.903,-77.79,396.26,-9,1016.98,1013.53,28.56,28.97,36.15,1.72,85.39,31.93,1016.98,105.4,22.8,354,21.62,387.12,2,-9,9,-9,0.09,10.02,92.39,-9,-9
AOML_Explorer,Ex0528E,192.165,11072005,3:57:22,25.899,-77.773,396.5,-9,1016.9,1013.79,28.6,28.93,36.17,1.71,85.38,31.92,1016.9,104.9,22.9,357,20.59,386.26,2,-9,9,-9,0.1,8.84,98.22,-9,-9
AOML_Explorer,Ex0528E,192.167,11072005,3:59:55,25.895,-77.755,396.51,-9,1016.82,1013.53,28.61,28.87,36.18,1.73,85.51,31.92,1016.82,104.9,23.1,355,21.62,385.21,2,-9,9,-9,0.09,9.84,93.34,-9,-9
AOML_Explorer,Ex0528E,192.18,11072005,4:19:07,25.864,-77.627,394.86,-9,1016.65,1013.52,28.29,28.83,36.24,1.73,86.41,31.96,1016.65,105,22.1,357,20.59,387.64,2,-9,9,-9,0.09,9.25,98.33,-9,-9
AOML_Explorer,Ex0528E,192.182,11072005,4:21:40,25.859,-77.61,395.14,-9,1016.57,1013.52,28.47,28.86,36.22,1.73,86.4,31.96,1016.57,105.5,22.1,355,19.56,385.74,2,-9,9,-9,0.1,8.32,92.09,-9,-9
AOML_Explorer,Ex0528E,192.183,11072005,4:24:13,25.855,-77.594,395.66,-9,1016.67,1013.51,28.48,28.9,36.23,1.73,86.31,31.96,1016.67,106.1,22,359,20.07,386.74,2,-9,9,-9,0.08,8.77,101.33,-9,-9
AOML_Explorer,Ex0528E,192.185,11072005,4:26:46,25.851,-77.577,395.79,-9,1016.69,1013.52,28.55,28.89,36.18,1.72,86.09,31.96,1016.69,107.6,22,359,19.04,385.63,2,-9,9,-9,0.09,7.74,101.99,-9,-9
AOML_Explorer,Ex0528E,192.187,11072005,4:29:19,25.846,-77.56,396.29,-9,1016.69,1013.51,28.52,28.93,36.22,1.74,85.88,31.95,1016.69,107.2,21.8,357,19.56,387.01,2,-9,9,-9,0.09,8.41,97.18,-9,-9
AOML_Explorer,Ex0528E,192.189,11072005,4:31:52,25.841,-77.544,397.46,-9,1016.53,1013.5,28.57,28.93,36.22,1.72,86.19,31.95,1016.53,107.2,21.9,354,19.04,387.44,2,-9,9,-9,0.09,7.96,90.78,-9,-9
AOML_Explorer,Ex0528E,192.191,11072005,4:34:25,25.837,-77.528,399.48,-9,1016.53,1013.5,28.59,28.86,36.21,1.7,85.92,31.95,1016.53,107,21.8,355,18.53,388.12,2,-9,9,-9,0.09,7.45,92.72,-9,-9
AOML_Explorer,Ex0528E,192.192,11072005,4:36:58,25.832,-77.511,400.19,-9,1016.67,1013.46,28.56,28.77,36.23,1.7,85.67,31.94,1016.67,107.2,21.7,352,19.04,388.18,2,-9,9,-9,0.09,8.2,85.81,-9,-9
AOML_Explorer,Ex0528E,192.194,11072005,4:39:31,25.828,-77.495,399.83,-9,1016.42,1013.22,28.49,28.68,36.27,1.72,84.98,31.94,1016.42,107,21.8,350,19.04,387.4,2,-9,9,-9,0.09,8.32,81.02,-9,-9
AOML_Explorer,Ex0528E,192.196,11072005,4:42:04,25.823,-77.479,399.21,-9,1016.47,1013.51,28.4,28.58,36.28,1.71,84.58,31.93,1016.47,107.2,21.8,354,20.59,386.69,2,-9,9,-9,0.11,9.56,91.71,-9,-9
AOML_Explorer,Ex0528E,192.198,11072005,4:44:37,25.819,-77.463,399.33,-9,1016.4,1013.21,28.32,28.57,36.28,1.7,85.71,31.93,1016.4,107,21.8,352,20.07,387.87,2,-9,9,-9,0.09,9.16,87.14,-9,-9
AOML_Explorer,Ex0528E,192.199,11072005,4:47:10,25.814,-77.446,398.99,-9,1016.43,1012.95,28.27,28.55,36.28,1.72,85.51,31.92,1016.43,107.1,21.8,355,20.07,388.08,2,-9,9,-9,0.1,8.99,93.72,-9,-9
AOML_Explorer,Ex0528E,192.201,11072005,4:49:43,25.81,-77.43,398.64,-9,1016.32,1013.23,28.25,28.55,36.28,1.73,85.45,31.92,1016.32,107.1,21.9,355,20.07,387.92,2,-9,9,-9,0.1,8.93,93.95,-9,-9
AOML_Explorer,Ex0528E,192.203,11072005,4:52:16,25.805,-77.414,398.38,-9,1016.41,1012.96,28.24,28.54,36.28,1.72,85.72,31.92,1016.41,106.9,21.9,351,19.56,387.67,2,-9,9,-9,0.11,8.68,83.88,-9,-9
AOML_Explorer,Ex0528E,192.205,11072005,4:54:49,25.801,-77.397,398.3,-9,1016.24,1013.22,28.24,28.54,36.27,1.73,85.7,31.91,1016.24,107.1,21.9,357,19.04,387.63,2,-9,9,-9,0.1,7.83,97.78,-9,-9
AOML_Explorer,Ex0528E,192.207,11072005,4:57:22,25.796,-77.381,398.08,-9,1016.2,1012.96,28.24,28.56,36.27,1.72,85.56,31.91,1016.2,106.8,21.9,352,19.04,387.64,2,-9,9,-9,0.09,8.09,85.81,-9,-9
AOML_Explorer,Ex0528E,192.208,11072005,4:59:55,25.792,-77.364,397.93,-9,1016.33,1012.98,28.24,28.57,36.27,1.72,86.14,31.91,1016.33,106.9,22,358,20.07,387.8,2,-9,9,-9,0.1,8.78,100.69,-9,-9
AOML_Explorer,Ex0528E,192.22,11072005,5:16:34,25.762,-77.255,397.78,-9,1016.21,1012.98,28.38,28.72,36.25,1.69,85.73,31.94,1016.21,107.1,22.5,352,19.56,387.55,2,-9,9,-9,0.09,8.33,85.23,-9,-9
AOML_Explorer,Ex0528E,192.222,11072005,5:19:07,25.757,-77.239,398.54,-9,1016.22,1012.67,28.38,28.72,36.25,1.72,86.37,31.94,1016.22,107.2,22.6,351,19.56,388.31,2,-9,9,-9,0.1,8.36,83.02,-9,-9
AOML_Explorer,Ex0528E,192.223,11072005,5:21:40,25.753,-77.222,398.95,-9,1016.19,1012.67,28.39,28.72,36.25,1.71,86.22,31.94,1016.19,107.1,22.6,352,20.07,388.48,2,-9,9,-9,0.09,8.76,86.5,-9,-9
AOML_Explorer,Ex0528E,192.225,11072005,5:24:13,25.748,-77.205,399.03,-9,1016.21,1012.96,28.39,28.7,36.25,1.7,86.17,31.94,1016.21,106.8,22.6,353,20.07,388.37,2,-9,9,-9,0.1,8.67,89.21,-9,-9
AOML_Explorer,Ex0528E,192.227,11072005,5:26:46,25.744,-77.188,399.24,-9,1016.17,1012.68,28.39,28.71,36.25,1.71,86.03,31.94,1016.17,106.6,22.7,350,19.56,388.64,2,-9,9,-9,0.09,8.4,81.4,-9,-9
AOML_Explorer,Ex0528E,192.229,11072005,5:29:19,25.739,-77.171,399.18,-9,1016,1012.66,28.39,28.66,36.25,1.71,86.05,31.93,1016,106.3,22.7,351,20.07,387.87,2,-9,9,-9,0.09,8.74,84.76,-9,-9
AOML_Explorer,Ex0528E,192.23,11072005,5:31:52,25.734,-77.154,399.21,-9,1016.05,1012.67,28.36,28.64,36.24,1.71,86.05,31.93,1016.05,106.4,22.7,349,20.07,388.07,2,-9,9,-9,0.1,8.91,80.31,-9,-9
AOML_Explorer,Ex0528E,192.232,11072005,5:34:25,25.73,-77.137,399.12,-9,1016.02,1012.69,28.33,28.64,36.24,1.7,84.79,31.93,1016.02,106.3,22.7,347,19.56,388.4,2,-9,9,-9,0.11,8.63,74.5,-9,-9
AOML_Explorer,Ex0528E,192.234,11072005,5:36:58,25.725,-77.12,398.81,-9,1016.06,1012.69,28.33,28.6,36.24,1.74,85.46,31.93,1016.06,106.4,22.7,343,19.04,387.64,2,-9,9,-9,0.09,8.61,65.49,-9,-9
AOML_Explorer,Ex0528E,192.236,11072005,5:39:31,25.721,-77.103,398.51,-9,1016.03,1012.67,28.31,28.58,36.24,1.73,85.09,31.93,1016.03,106.6,22.7,346,19.04,387.32,2,-9,9,-9,0.09,8.26,71.53,-9,-9
AOML_Explorer,Ex0528E,192.238,11072005,5:42:04,25.716,-77.086,398.18,-9,1016.01,1012.67,28.28,28.75,36.26,1.7,86.35,31.92,1016.01,106.1,22.6,345,19.04,389.72,2,-9,9,-9,0.09,8.46,68.56,-9,-9
AOML_Explorer,Ex0528E,192.239,11072005,5:44:37,25.713,-77.069,397.73,-9,1015.96,1012.68,28.29,28.84,36.37,1.71,85.64,31.92,1015.96,100,22.6,349,19.56,390.31,2,-9,9,-9,0.09,8.47,72.96,-9,-9
AOML_Explorer,Ex0528E,192.241,11072005,5:47:10,25.711,-77.051,397.81,-9,1015.88,1012.68,28.46,28.83,36.34,1.71,85.99,31.91,1015.88,95,22.8,350,18.53,387.75,2,-9,9,-9,0.1,7.26,68.81,-9,-9
AOML_Explorer,Ex0528E,192.243,11072005,5:49:43,25.709,-77.033,399.14,-9,1015.94,1012.66,28.49,28.79,36.29,1.72,85.64,31.91,1015.94,95.1,22.9,350,19.04,388.09,2,-9,9,-9,0.09,7.7,69.93,-9,-9
AOML_Explorer,Ex0528E,192.245,11072005,5:52:16,25.708,-77.015,399.89,-9,1015.92,1012.67,28.46,28.75,36.28,1.74,84.99,31.91,1015.92,95.8,22.9,350,19.04,388.66,2,-9,9,-9,0.09,7.78,68.76,-9,-9
AOML_Explorer,Ex0528E,192.246,11072005,5:54:49,25.706,-76.998,400,-9,1015.84,1012.67,28.45,28.82,36.22,1.7,86.21,31.9,1015.84,95.6,22.6,353,19.04,389.81,2,-9,9,-9,0.1,7.67,76.6,-9,-9
AOML_Explorer,Ex0528E,192.248,11072005,5:57:22,25.705,-76.98,399.94,-9,1016,1012.67,28.45,28.86,36.19,1.72,86.2,31.9,1016,94.9,22.5,352,19.56,390.39,2,-9,9,-9,0.09,8.25,75.7,-9,-9
AOML_Explorer,Ex0528E,192.25,11072005,5:59:55,25.703,-76.962,399.65,-9,1015.97,1012.67,28.51,28.88,36.19,1.73,85.42,31.9,1015.97,95,22.4,354,19.56,389.49,2,-9,9,-9,0.09,8.18,80.74,-9,-9
AOML_Explorer,Ex0528E,192.263,11072005,6:19:07,25.693,-76.832,397.31,-9,1015.84,1012.41,28.39,28.73,36.21,1.71,85.56,31.95,1015.84,95.6,22.5,357,19.04,386.81,2,-9,9,-9,0.1,7.52,86.4,-9,-9
AOML_Explorer,Ex0528E,192.265,11072005,6:21:40,25.691,-76.815,397.98,-9,1015.67,1012.63,28.4,28.68,36.22,1.71,86.08,31.95,1015.67,96,22.6,352,19.56,386.79,2,-9,9,-9,0.1,8.26,74.52,-9,-9
AOML_Explorer,Ex0528E,192.267,11072005,6:24:13,25.69,-76.797,398.34,-9,1015.7,1012.44,28.38,28.68,36.2,1.72,86.01,31.95,1015.7,95.9,22.7,353,19.56,387.27,2,-9,9,-9,0.1,8.14,76.91,-9,-9
AOML_Explorer,Ex0528E,192.269,11072005,6:26:46,25.688,-76.78,398.7,-9,1015.74,1012.41,28.35,28.65,36.21,1.72,86.24,31.95,1015.74,96.1,22.9,354,19.56,387.75,2,-9,9,-9,0.11,8.01,78.02,-9,-9
AOML_Explorer,Ex0528E,192.27,11072005,6:29:19,25.686,-76.762,398.91,-9,1015.78,1012.66,28.35,28.71,36.2,1.71,85.67,31.95,1015.78,96.1,23,357,19.04,388.74,2,-9,9,-9,0.1,7.3,84.68,-9,-9
AOML_Explorer,Ex0528E,192.272,11072005,6:31:52,25.685,-76.744,399.17,-9,1015.76,1012.42,28.35,28.74,36.2,1.74,85.78,31.94,1015.76,96.5,23.1,355,19.04,389.35,2,-9,9,-9,0.1,7.34,79.99,-9,-9
AOML_Explorer,Ex0528E,192.274,11072005,6:34:25,25.683,-76.726,399.44,-9,1015.77,1012.41,28.39,28.8,36.19,1.71,85.96,31.94,1015.77,95.9,23.3,359,19.56,389.94,2,-9,9,-9,0.1,7.59,90.35,-9,-9